DL7GAI-7 Weather Reports


Display with metric or nautical units.
time (UTC)temp
F
wind
direction
speed
MPH
gust
MPH
rain 1hr
in
rain 24hr
in
rain mn
in
humidity
%
barometer
mb
20260903064437 57 315 2.0 4.0 0.00 0.00 0.00 89 1023.8
20260903063055 55 45 2.0 4.0 0.00 0.00 0.00 93 1023.6
20260903061707 55 45 2.0 4.0 0.00 0.00 0.00 93 1023.6
20260903060402 55 0 3.0 4.0 0.00 0.00 0.00 92 1023.7
20260903055037 55 0 3.0 4.0 0.00 0.00 0.00 92 1023.7
20260903053552 55 0 2.0 2.0 0.00 0.00 0.00 90 1023.3
20260903052135 55 0 2.0 2.0 0.00 0.00 0.00 90 1023.3
20260903050817 55 0 2.0 2.0 0.00 0.00 0.00 90 1023.3
20260903045430 55 0 0.0 6.0 0.00 0.00 0.00 90 1023.3
20260903044047 55 0 0.0 6.0 0.00 0.00 0.00 90 1023.3
20260903042657 56 0 2.0 6.0 0.00 0.00 0.00 87 1023.2
20260903041437 56 0 2.0 6.0 0.00 0.00 0.00 87 1023.2
20260903034734 56 0 2.0 6.0 0.00 0.00 0.00 86 1023.2
20260903033342 57 0 1.0 6.0 0.00 0.00 0.00 84 1022.9
20260903031957 57 0 1.0 6.0 0.00 0.00 0.00 84 1022.9
20260903030657 57 0 1.0 6.0 0.00 0.00 0.00 84 1022.9
20260903025322 58 315 4.0 6.0 0.00 0.00 0.00 81 1022.9
20260903023957 58 315 4.0 6.0 0.00 0.00 0.00 81 1022.9
20260903022727 58 315 2.0 6.0 0.00 0.00 0.00 82 1023.0
20260903021442 58 315 2.0 6.0 0.00 0.00 0.00 82 1023.0
20260903020030 60 315 4.0 7.0 0.00 0.00 0.00 77 1022.6
20260903014652 60 315 4.0 7.0 0.00 0.00 0.00 77 1022.6
20260903013303 59 315 4.0 5.0 0.00 0.00 0.00 81 1022.6
20260903011845 59 315 4.0 5.0 0.00 0.00 0.00 81 1022.6
20260903010517 60 0 1.0 6.0 0.00 0.00 0.00 79 1022.5
20260903005122 60 0 1.0 6.0 0.00 0.00 0.00 79 1022.5
20260903003907 60 0 1.0 6.0 0.00 0.00 0.00 79 1022.5
20260903002647 62 90 2.0 6.0 0.00 0.00 0.00 74 1022.2
20260903001257 62 90 2.0 6.0 0.00 0.00 0.00 74 1022.2
20260902235909 66 270 6.0 9.0 0.00 0.00 0.00 61 1021.8
20260902234547 66 270 6.0 9.0 0.00 0.00 0.00 61 1021.8
20260902233244 67 315 6.0 8.0 0.00 0.00 0.00 66 1021.7
20260902231837 67 315 6.0 8.0 0.00 0.00 0.00 66 1021.7
20260902230532 69 270 6.0 9.0 0.00 0.00 0.00 63 1021.5
20260902225132 69 270 6.0 9.0 0.00 0.00 0.00 63 1021.5
20260902223802 69 270 6.0 9.0 0.00 0.00 0.00 63 1021.5
20260902222544 66 315 4.0 9.0 0.00 0.00 0.00 68 1021.5
20260902221054 66 315 4.0 9.0 0.00 0.00 0.00 68 1021.5
20260902215817 66 315 5.0 6.0 0.00 0.00 0.00 69 1021.3
20260902214412 66 315 5.0 6.0 0.00 0.00 0.00 69 1021.3
20260902213042 65 90 2.0 2.0 0.00 0.00 0.00 70 1021.1
20260902211647 65 90 2.0 2.0 0.00 0.00 0.00 70 1021.1
20260902210327 67 0 1.0 6.0 0.00 0.00 0.00 65 1020.9
20260902204932 67 0 1.0 6.0 0.00 0.00 0.00 65 1020.9
20260902203647 67 0 1.0 6.0 0.00 0.00 0.00 65 1020.9
20260902202242 68 315 4.0 6.0 0.00 0.00 0.00 61 1020.6
20260902200821 68 315 4.0 6.0 0.00 0.00 0.00 61 1020.6
20260902195552 71 270 3.0 8.0 0.00 0.00 0.00 53 1020.0
20260902194122 71 270 3.0 8.0 0.00 0.00 0.00 53 1020.0
20260902192837 71 315 5.0 7.0 0.00 0.00 0.00 52 1019.7
20260902191442 71 315 5.0 7.0 0.00 0.00 0.00 52 1019.7
20260902190047 72 315 5.0 12.0 0.00 0.00 0.00 49 1019.5
20260902184642 72 315 5.0 12.0 0.00 0.00 0.00 49 1019.5
20260902183338 75 270 6.0 12.0 0.00 0.00 0.00 40 1018.9
20260902182017 75 270 6.0 12.0 0.00 0.00 0.00 40 1018.9
20260902180753 75 270 6.0 12.0 0.00 0.00 0.00 40 1018.9
20260902175503 76 270 7.0 16.0 0.00 0.00 0.00 39 1018.7
20260902174057 76 270 7.0 16.0 0.00 0.00 0.00 39 1018.7
20260902172712 77 270 9.0 16.0 0.00 0.00 0.00 34 1018.6
20260902171247 77 270 9.0 16.0 0.00 0.00 0.00 34 1018.6
20260902165922 78 225 9.0 15.0 0.00 0.00 0.00 32 1018.4
20260902164607 78 225 9.0 15.0 0.00 0.00 0.00 32 1018.4
20260902163207 79 270 9.0 15.0 0.00 0.00 0.00 31 1018.3
20260902161812 79 270 9.0 15.0 0.00 0.00 0.00 31 1018.3
20260902160527 78 270 9.0 17.0 0.00 0.00 0.00 35 1018.6
20260902155327 78 270 9.0 17.0 0.00 0.00 0.00 35 1018.6
20260902153932 78 270 9.0 17.0 0.00 0.00 0.00 35 1018.6
20260902152642 77 270 10.0 17.0 0.00 0.00 0.00 34 1018.7
20260902151202 77 270 10.0 17.0 0.00 0.00 0.00 34 1018.7
20260902145902 79 270 9.0 16.0 0.00 0.00 0.00 35 1018.6
20260902144607 79 270 9.0 16.0 0.00 0.00 0.00 35 1018.6
20260902143257 78 315 6.0 12.0 0.00 0.00 0.00 42 1019.0
20260902141937 78 315 6.0 12.0 0.00 0.00 0.00 42 1019.0
20260902140602 76 270 5.0 12.0 0.00 0.00 0.00 48 1019.3
20260902135217 76 270 5.0 12.0 0.00 0.00 0.00 48 1019.3
20260902133932 76 270 5.0 12.0 0.00 0.00 0.00 48 1019.3
20260902132706 75 270 6.0 12.0 0.00 0.00 0.00 51 1019.5
20260902131312 75 270 6.0 12.0 0.00 0.00 0.00 51 1019.5
20260902125912 75 270 4.0 9.0 0.00 0.00 0.00 52 1019.7
20260902124632 75 270 4.0 9.0 0.00 0.00 0.00 52 1019.7
20260902123342 74 270 4.0 8.0 0.00 0.00 0.00 54 1020.3
20260902121912 74 270 4.0 8.0 0.00 0.00 0.00 54 1020.3
20260902120544 72 315 3.0 9.0 0.00 0.00 0.00 57 1020.7
20260902115154 72 315 3.0 9.0 0.00 0.00 0.00 57 1020.7
20260902113907 72 315 3.0 9.0 0.00 0.00 0.00 57 1020.7
20260902112504 70 270 3.0 9.0 0.00 0.00 0.00 59 1021.1
20260902111038 70 270 3.0 9.0 0.00 0.00 0.00 59 1021.1
20260902105727 69 270 4.0 7.0 0.00 0.00 0.00 61 1021.4
20260902104442 69 270 4.0 7.0 0.00 0.00 0.00 61 1021.4
20260902103147 67 270 4.0 7.0 0.00 0.00 0.00 66 1021.4
20260902101930 67 270 4.0 7.0 0.00 0.00 0.00 66 1021.4
20260902100542 68 315 2.0 5.0 0.00 0.00 0.00 63 1021.4
20260902095117 68 315 2.0 5.0 0.00 0.00 0.00 63 1021.4
20260902093817 68 315 2.0 5.0 0.00 0.00 0.00 63 1021.4
20260902092510 65 90 2.0 3.0 0.00 0.00 0.00 69 1021.4
20260902091157 65 90 2.0 3.0 0.00 0.00 0.00 69 1021.4
20260902085932 64 270 1.0 4.0 0.00 0.00 0.00 71 1021.5
20260902084637 64 270 1.0 4.0 0.00 0.00 0.00 71 1021.5
20260902083332 64 0 0.0 3.0 0.00 0.00 0.00 71 1021.5
20260902081912 64 0 0.0 3.0 0.00 0.00 0.00 71 1021.5
20260902080602 62 180 1.0 2.0 0.00 0.00 0.00 76 1021.8
20260902075111 62 180 1.0 2.0 0.00 0.00 0.00 76 1021.8
20260902073747 62 180 1.0 2.0 0.00 0.00 0.00 76 1021.8
20260902072332 58 0 1.0 2.0 0.00 0.00 0.00 85 1022.2
20260902071042 58 0 1.0 2.0 0.00 0.00 0.00 85 1022.2
20260902065812 55 90 2.0 4.0 0.00 0.00 0.00 89 1022.1